Regional Weather Roundup
Issued by NWS State College, PA

Home | Current Version | Previous Version | Text Only | Print | Product List | Glossary Off
Versions: 1 2 3 4 5 6 7 8 9 10 11 12 13 14 15 16 17 18 19 20 21 22 23 24 25 26 27 28 29 30 31 32 33 34 35 36 37 38 39 40 41 42 43 44 45 46 47 48 49 50

000
ASUS41 KCTP 300810
RWRCTP

REGIONAL WEATHER ROUNDUP
NATIONAL WEATHER SERVICE STATE COLLEGE PA
400 AM EDT MON MAY 30 2016

Note: "fair" indicates few or no clouds below 12,000 feet with no
significant weather and/or obstructions to visibility.

* = STATION THAT DOES NOT REPORT PRECIPITATION /E.G. RAIN...SNOW...ETC/
    THUNDER OR FOG.

PAZ002>004-007>009-013>016-020>023-029>032-300900-
WESTERN PENNSYLVANIA

CITY           SKY/WX    TMP DP  RH WIND       PRES   REMARKS
ERIE           CLEAR     69  59  70 S10       29.95R
MEADVILLE      PTCLDY    63  60  90 S6        29.99F
FRANKLIN*      PTCLDY    61  55  82 S7        30.03S
NEW CASTLE     FAIR      63  61  93 CALM      30.00F
BEAVER COUNTY  NOT AVBL
BUTLER*        CLEAR    N/A N/A N/A CALM      30.04S
PITTSBURGH INT PTCLDY    63  59  87 CALM      30.01S
PITTSBURGH     CLEAR     63  59  87 S7        30.00F
INDIANA*       FOG       59  59 100 CALM      30.07S VSB 3/4
LATROBE        FOG       57  57 100 CALM      30.03F VSB<1/4
WASHINGTON CO* CLOUDY    55  54  94 CALM      30.02F VSB<1/4
$$

PAZ004>006-010>012-017>019-024>028-033>037-041-042-045-046-049>053-300900-
CENTRAL PENNSYLVANIA

CITY           SKY/WX    TMP DP  RH WIND       PRES   REMARKS
BRADFORD       CLOUDY    58  54  86 CALM      30.03S
DUBOIS         MOCLDY    58  56  93 S5        30.02F
CLEARFIELD     FOG       59  57  93 CALM      30.04F VSB 1/4
JOHNSTOWN      PTCLDY    61  54  77 S7        30.05F
ALTOONA        PTCLDY    61  58  90 CALM      30.04F
STATE COLLEGE  MOCLDY    61  58  90 W6        30.02S
WILLIAMSPORT   CLOUDY    69  60  73 VRB3      29.99S
SELINSGROVE    CLOUDY    65  61  87 S3        30.01S
FT INDIANTOWN  CLOUDY    64  64 100 S1        30.00F
CAPITAL CITY   LGT RAIN  64  61  90 SW3       30.01F
HARRISBURG     LGT RAIN  65  62  90 CALM      30.00F
YORK           LGT RAIN  64  63  96 CALM      30.02F
$$

PAZ038>040-043-044-047-048-054-055-060>062-067>071-300900-
EASTERN PENNSYLVANIA

CITY           SKY/WX    TMP DP  RH WIND       PRES   REMARKS
SCRANTON       LGT RAIN  64  62  93 CALM      30.03S FOG
MOUNT POCONO   LGT RAIN  61  32  33 N3        30.04F
ALLENTOWN      CLOUDY    68  64  87 NE7       30.00S
QUAKERTOWN*    CLOUDY    68  68 100 CALM      30.01F
READING        RAIN      66  64  93 W5        30.00S FOG
LANCASTER      LGT RAIN  65  64  97 W3        30.01S
COATESVILLE    DRIZZLE   66  66 100 NW7       30.03S
POTTSTOWN      LGT RAIN  67  67 100 CALM      30.01F FOG
BLUE BELL      CLOUDY    66  66 100 CALM      29.99F
DOYLESTOWN     CLOUDY    66  65  96 CALM      30.00F
WILLOW GROVE   NOT AVBL
NORTH PHILA    HVY RAIN  68  67  96 NW6       30.01S VSB 1/2
PHILADELPHIA   LGT RAIN  71  68  90 CALM      29.99F FOG
$$



USA.gov is the U.S. government's official web portal to all federal, state and local government web resources and services.